Wind_Speed
10 9 8 9 9 8 7 7 6 4 3 2 3 3 4 4 5 5 6 6 5 5 5 6 7 7 8 8 8 9 9 9 9 9 10 10 10 10 10 10 10 10 10
9 9 9 9 9 8 8 7 5 5 5 4 5 5 5 6 6 6 7 7 7 7 7 7 8 8 8 9 9 10 10 11 11 11 11 12 11 12 11 11 11 11 12
9 9 9 8 8 8 8 7 7 7 6 6 6 6 6 6 7 7 7 8 8 8 8 9 9 9 10 10 11 11 11 12 12 12 12 13 13 13 12 12 12 12 12
9 10 10 9 9 8 8 8 8 8 7 7 7 7 8 8 8 9 9 9 10 10 10 10 10 11 11 11 11 12 12 13 13 13 13 13 13 13 13 14 14 14 14
11 11 10 10 10 9 9 9 9 9 8 8 9 9 9 10 10 10 10 11 11 11 11 11 11 12 12 12 13 13 14 14 14 14 14 14 14 14 15 15 16 16 16
11 12 12 11 11 10 10 10 10 11 10 10 11 11 11 11 11 11 11 12 12 12 12 12 12 13 13 13 14 15 15 14 14 15 15 15 15 14 15 15 17 17 17
12 12 12 12 12 11 11 11 12 12 11 11 12 13 13 13 13 13 13 13 13 13 13 14 14 14 14 15 15 16 16 16 16 16 15 16 16 16 16 16 17 18 18
12 13 13 12 12 12 12 13 13 13 13 13 13 14 14 14 14 14 14 15 15 15 15 15 16 16 16 16 16 17 17 17 17 17 17 17 17 17 17 18 18 18 19
13 13 13 13 13 13 13 13 13 13 14 15 14 15 15 15 15 15 15 16 16 16 16 16 17 17 17 17 16 17 17 17 18 18 19 19 19 19 19 19 19 19 19
14 14 14 14 14 15 15 14 15 14 15 16 15 16 15 16 16 16 16 17 17 17 17 17 17 17 17 17 17 17 17 18 18 19 19 20 20 21 21 20 20 20 20
15 15 15 15 15 16 16 16 15 16 16 16 17 17 16 16 16 17 17 17 18 18 18 18 18 17 18 18 18 18 19 19 19 19 20 20 21 21 21 21 21 20 20
17 17 17 17 17 17 17 17 17 16 17 17 17 17 17 17 17 18 18 18 18 18 18 18 18 18 18 19 19 19 19 19 20 20 20 21 21 21 21 21 21 20 21
18 18 18 19 19 19 18 18 18 18 18 18 18 19 18 18 19 18 18 19 18 19 19 20 19 19 20 20 20 21 20 20 20 20 20 21 21 20 21 21 21 21 22
20 19 19 19 20 20 19 19 19 20 20 19 19 19 19 19 19 19 19 19 20 20 20 20 20 20 21 21 21 21 21 21 21 21 21 21 21 21 21 22 22 22 23
22 21 21 21 21 21 21 20 21 21 21 20 19 20 19 19 19 19 19 20 21 21 21 21 21 22 22 23 23 23 22 22 22 22 22 21 22 22 22 22 23 23 23
22 22 22 22 22 23 22 22 22 22 22 22 21 20 20 19 19 20 20 21 22 22 22 22 22 22 22 23 23 23 23 23 22 23 23 23 23 23 23 24 24 24 24
22 22 22 22 22 22 22 23 22 22 23 23 22 22 21 21 21 21 21 22 22 22 22 23 22 22 23 23 23 23 23 23 23 23 24 24 24 24 24 24 25 25 24
22 23 22 22 23 23 23 24 23 23 23 23 23 23 23 23 23 23 23 22 22 22 22 23 23 23 24 24 24 24 24 25 24 24 24 24 24 24 24 24 25 25 25
23 23 23 23 23 23 23 24 24 24 24 24 24 24 24 23 23 23 22 22 22 22 22 23 23 24 24 24 25 25 25 25 25 25 25 25 25 25 24 25 25 25 24
24 24 24 25 24 24 24 24 25 25 24 24 24 25 24 23 23 23 23 23 23 23 23 23 24 24 24 25 25 25 25 25 26 26 26 26 26 26 26 25 25 24 23
25 25 25 25 25 26 26 25 25 25 25 26 25 25 24 24 23 24 24 24 24 24 24 24 24 25 25 25 25 26 25 25 26 26 26 27 27 27 27 26 25 23 23
26 26 25 25 25 26 26 25 24 25 25 26 26 24 24 24 24 25 25 25 25 25 26 25 25 26 26 26 26 26 26 26 26 26 26 27 27 27 27 26 25 24 22
26 26 26 25 25 25 25 26 25 25 25 25 25 25 25 25 25 25 25 26 26 26 26 26 26 26 27 27 27 27 28 27 27 27 26 26 26 26 26 26 24 23 22
26 26 25 25 25 25 25 25 25 25 25 25 25 25 25 25 26 26 26 26 26 26 26 26 26 26 27 27 27 28 28 27 26 25 25 25 25 25 24 24 24 23 22
26 25 26 25 25 25 26 25 25 25 26 25 26 27 27 28 27 26 26 26 26 26 25 25 25 26 26 26 26 27 27 25 24 24 24 25 25 24 25 24 23 22 22
27 26 26 25 25 26 25 25 26 26 26 25 26 26 26 27 27 26 26 26 27 26 25 24 24 24 24 24 24 23 23 23 24 24 24 24 24 25 24 23 23 23 22
Wind_Direction
5 0 355 354 352 351 354 352 358 355 340 314 314 313 312 311 306 302 302 301 303 303 292 283 287 284 282 281 281 280 278 279 283 285 285 284 280 281 283 284 282 279 276
358 355 346 345 343 342 338 335 334 346 344 322 312 310 307 308 305 301 297 295 295 299 298 290 287 284 281 278 277 277 277 279 278 281 283 285 285 281 280 278 280 278 275
349 347 344 344 344 340 339 333 330 326 326 315 310 311 309 308 304 300 297 294 292 291 290 290 287 284 281 278 276 275 275 281 281 281 282 281 284 286 281 279 279 277 273
339 342 340 336 334 329 328 327 326 321 315 308 306 307 307 305 302 297 294 290 289 288 284 285 284 281 280 280 280 278 276 278 281 281 282 279 278 280 281 280 277 277 275
332 335 334 331 329 324 322 318 317 316 312 304 301 302 301 300 301 299 295 292 289 286 286 286 284 283 281 280 280 279 276 279 281 281 281 278 277 279 278 277 277 276 275
319 325 326 327 325 321 318 313 313 311 309 304 300 299 298 296 298 298 296 294 291 288 286 287 285 283 282 282 281 281 277 278 279 280 282 281 280 282 279 277 277 276 274
310 316 318 320 321 318 315 311 309 308 307 303 301 299 296 294 295 295 294 294 293 290 287 287 286 284 282 282 281 281 280 278 278 280 283 284 282 281 279 278 277 276 277
305 313 318 318 319 318 316 313 311 309 308 304 301 298 295 294 294 293 291 292 292 291 289 287 285 285 283 283 282 281 280 279 278 280 283 284 283 282 280 279 277 277 277
304 310 314 314 314 315 316 316 313 312 310 306 302 301 297 295 295 293 293 292 290 291 290 286 285 285 284 283 283 282 279 278 279 280 282 284 284 283 282 281 278 276 276
300 303 308 311 312 313 314 314 311 311 310 309 305 302 298 295 293 292 293 292 290 289 288 285 285 284 283 282 283 283 282 279 279 280 281 282 284 284 284 283 280 278 276
296 300 303 306 309 311 312 311 310 309 308 307 305 301 298 294 293 292 292 291 289 288 287 286 285 284 283 282 283 282 281 282 282 281 281 281 282 284 283 281 280 279 275
293 296 299 302 305 307 307 308 306 307 307 306 303 299 297 295 294 292 291 291 290 288 287 286 284 283 282 282 281 281 280 280 281 281 280 280 281 282 282 281 278 276 274
290 293 295 298 301 302 303 305 304 305 305 304 304 302 300 297 295 292 290 290 290 288 286 284 284 282 280 280 281 281 280 280 280 280 280 280 280 281 281 280 278 275 274
286 288 291 296 299 299 300 301 304 305 305 304 303 304 302 299 295 293 292 291 290 288 285 283 282 282 279 278 279 280 279 278 278 278 279 278 277 279 280 280 279 276 276
284 285 287 292 295 296 295 297 302 305 306 304 302 302 301 299 295 295 293 292 291 288 286 284 282 282 281 279 279 279 279 277 276 277 278 277 277 277 278 279 278 277 276
280 282 285 289 293 296 294 295 298 301 304 303 302 300 299 298 298 297 296 293 291 289 286 284 283 283 283 281 280 280 280 279 278 278 279 278 279 280 279 278 278 278 278
282 281 283 286 288 291 294 294 295 297 300 301 300 299 299 299 299 298 296 294 292 289 287 286 285 284 283 283 282 281 280 279 278 279 280 280 282 282 280 279 278 279 279
284 284 284 284 287 289 292 293 292 295 297 298 298 299 299 298 297 296 296 294 292 291 289 287 286 285 284 285 284 282 281 279 278 279 280 281 281 282 280 281 279 279 279
283 285 284 285 287 289 294 295 291 293 297 297 297 297 297 297 296 296 296 296 293 291 289 287 285 284 284 284 284 283 282 281 279 277 278 280 280 282 282 281 280 280 279
284 287 288 289 289 290 291 294 293 291 294 296 297 296 295 295 295 295 295 294 293 291 289 288 286 285 284 284 284 283 283 282 280 279 279 279 280 281 282 282 280 279 277
281 285 288 290 290 292 291 293 293 295 294 294 294 294 294 294 294 293 294 294 293 292 290 288 287 285 284 283 284 283 283 283 282 280 280 279 278 279 279 279 277 276 275
277 280 284 287 289 290 289 290 291 292 293 294 295 293 292 291 292 293 293 293 293 292 292 290 288 286 284 283 282 282 282 282 282 281 281 279 278 278 278 278 277 275 273
278 280 284 285 287 288 289 288 289 290 290 292 293 293 292 292 292 293 292 291 290 291 292 289 288 286 285 284 282 282 282 282 281 280 281 280 279 278 278 278 276 274 273
276 280 282 285 287 288 288 288 288 290 291 292 292 292 293 295 294 293 294 294 293 292 290 289 287 286 284 283 283 283 283 283 283 281 279 279 279 278 277 277 274 273 274
272 276 280 283 285 286 287 287 288 289 290 292 293 294 294 294 295 296 298 296 295 295 293 290 288 286 285 283 284 286 286 285 284 282 279 279 278 275 274 275 275 275 276
269 273 276 280 284 286 285 286 288 289 289 291 293 294 296 297 298 298 299 299 296 295 295 292 290 287 285 285 287 289 288 286 286 282 281 278 273 273 276 276 275 276 277
Height
5891 5889 5887 5886 5884 5883 5881 5880 5879 5878 5877 5877 5877 5876 5876 5876 5875 5875 5874 5874 5873 5873 5872 5872 5872 5872 5871 5871 5871 5871 5870 5870 5870 5870 5869 5869 5869 5868 5868 5868 5867 5867 5867
5890 5888 5887 5885 5883 5882 5881 5879 5877 5876 5876 5876 5876 5875 5875 5874 5874 5873 5872 5872 5871 5871 5870 5870 5870 5869 5869 5869 5868 5868 5868 5868 5867 5867 5866 5866 5866 5865 5865 5865 5865 5865 5864
5890 5888 5886 5884 5882 5881 5879 5878 5877 5875 5875 5875 5874 5874 5873 5873 5872 5871 5870 5870 5869 5869 5868 5868 5867 5867 5866 5866 5866 5865 5865 5865 5865 5864 5864 5863 5862 5862 5862 5861 5861 5861 5861
5889 5887 5885 5883 5881 5879 5878 5877 5876 5875 5874 5873 5872 5871 5871 5870 5870 5869 5868 5867 5867 5866 5866 5865 5864 5864 5863 5863 5862 5862 5862 5861 5861 5861 5860 5860 5859 5858 5858 5858 5858 5858 5857
5887 5886 5884 5881 5879 5877 5876 5875 5874 5872 5871 5871 5870 5869 5868 5868 5867 5866 5865 5864 5864 5863 5862 5862 5861 5861 5860 5860 5859 5858 5858 5858 5857 5857 5856 5856 5855 5854 5854 5854 5854 5854 5853
5886 5884 5882 5880 5877 5875 5874 5872 5871 5870 5869 5868 5867 5866 5866 5865 5864 5863 5862 5861 5860 5859 5859 5858 5858 5857 5856 5856 5855 5854 5854 5853 5853 5853 5852 5851 5851 5850 5850 5850 5849 5849 5849
5884 5882 5880 5877 5875 5873 5871 5870 5868 5867 5866 5865 5864 5863 5862 5861 5860 5859 5859 5858 5857 5856 5855 5854 5854 5853 5852 5851 5850 5850 5849 5849 5848 5848 5847 5846 5846 5846 5845 5845 5845 5844 5844
5882 5880 5877 5875 5873 5870 5869 5867 5865 5864 5863 5862 5860 5859 5858 5857 5856 5855 5854 5854 5853 5852 5851 5850 5849 5848 5847 5847 5845 5845 5845 5844 5844 5843 5842 5842 5841 5841 5840 5840 5840 5839 5839
5879 5877 5875 5873 5870 5868 5866 5864 5862 5860 5859 5857 5856 5855 5854 5853 5852 5851 5850 5849 5848 5847 5846 5845 5844 5843 5842 5842 5841 5840 5840 5839 5839 5838 5837 5836 5836 5835 5835 5834 5834 5834 5833
5876 5874 5872 5870 5868 5865 5863 5861 5859 5857 5855 5853 5852 5851 5849 5848 5847 5846 5845 5844 5843 5842 5841 5840 5839 5838 5837 5836 5835 5835 5834 5833 5833 5832 5831 5831 5830 5829 5829 5829 5828 5827 5827
5872 5871 5869 5867 5864 5862 5860 5857 5856 5853 5851 5849 5848 5846 5845 5843 5842 5841 5840 5839 5837 5836 5835 5834 5833 5832 5831 5830 5830 5829 5828 5828 5827 5826 5826 5825 5824 5823 5823 5822 5822 5821 5821
5868 5866 5865 5863 5860 5858 5856 5854 5852 5849 5847 5845 5843 5842 5840 5839 5837 5836 5835 5833 5832 5830 5829 5828 5827 5826 5825 5825 5824 5823 5822 5822 5821 5820 5819 5819 5818 5817 5817 5816 5815 5815 5815
5863 5862 5860 5858 5856 5854 5852 5850 5847 5845 5843 5841 5839 5837 5835 5834 5832 5831 5829 5828 5826 5825 5824 5823 5821 5820 5819 5818 5817 5817 5816 5815 5815 5814 5813 5812 5812 5811 5810 5809 5809 5809 5808
5858 5856 5855 5853 5851 5849 5847 5845 5842 5840 5838 5836 5834 5832 5830 5828 5827 5825 5823 5822 5820 5819 5817 5816 5815 5814 5813 5812 5811 5810 5809 5808 5808 5807 5806 5806 5805 5805 5804 5803 5802 5802 5801
5852 5851 5849 5847 5846 5843 5841 5839 5837 5835 5833 5830 5828 5826 5825 5823 5821 5819 5818 5816 5814 5813 5811 5810 5809 5807 5806 5805 5804 5803 5802 5802 5801 5800 5800 5799 5798 5798 5797 5796 5795 5795 5794
5846 5845 5843 5842 5840 5838 5835 5834 5832 5830 5827 5825 5823 5821 5819 5817 5815 5814 5812 5810 5808 5807 5805 5803 5802 5801 5800 5799 5798 5797 5796 5795 5794 5794 5793 5791 5791 5790 5789 5788 5788 5787 5786
5839 5838 5837 5836 5834 5832 5830 5828 5826 5824 5822 5820 5818 5816 5813 5811 5810 5808 5806 5804 5802 5800 5798 5797 5795 5794 5793 5792 5791 5790 5789 5788 5787 5787 5786 5785 5784 5783 5782 5781 5780 5779 5779
5833 5832 5830 5829 5827 5825 5823 5821 5819 5817 5816 5814 5812 5810 5808 5806 5804 5802 5800 5797 5795 5793 5792 5790 5789 5787 5786 5785 5784 5783 5782 5781 5780 5780 5779 5778 5777 5776 5774 5773 5772 5772 5772
5826 5825 5823 5822 5820 5819 5817 5814 5813 5811 5810 5808 5806 5804 5802 5800 5797 5795 5793 5791 5789 5787 5785 5783 5782 5781 5779 5778 5777 5775 5774 5774 5773 5772 5772 5771 5770 5769 5767 5766 5765 5765 5764
5819 5818 5816 5815 5814 5812 5810 5808 5806 5804 5803 5801 5799 5797 5794 5793 5791 5789 5787 5784 5782 5781 5779 5777 5775 5774 5772 5771 5769 5768 5767 5766 5766 5765 5764 5763 5763 5761 5760 5759 5758 5757 5757
5811 5811 5809 5808 5806 5805 5803 5801 5799 5798 5796 5794 5792 5789 5787 5785 5784 5782 5780 5778 5776 5774 5772 5770 5768 5766 5765 5764 5762 5761 5760 5759 5758 5757 5756 5756 5755 5754 5753 5752 5751 5750 5750
5804 5803 5802 5801 5800 5798 5796 5795 5793 5791 5789 5787 5785 5783 5780 5778 5777 5775 5773 5771 5768 5766 5764 5762 5761 5759 5758 5756 5755 5753 5752 5751 5750 5750 5749 5748 5747 5746 5745 5744 5744 5744 5744
5796 5795 5795 5794 5792 5791 5789 5788 5786 5784 5782 5780 5778 5776 5774 5772 5770 5768 5765 5762 5760 5758 5756 5755 5753 5752 5750 5749 5748 5746 5745 5743 5742 5742 5741 5740 5739 5738 5737 5737 5737 5737 5737
5788 5788 5787 5787 5786 5784 5783 5781 5779 5777 5775 5773 5771 5769 5767 5765 5763 5760 5758 5756 5753 5751 5749 5747 5746 5745 5743 5741 5740 5739 5737 5736 5735 5734 5733 5732 5731 5730 5730 5730 5729 5729 5729
5780 5780 5779 5779 5778 5777 5776 5774 5772 5770 5768 5766 5764 5762 5760 5758 5757 5754 5752 5749 5747 5744 5742 5741 5739 5737 5736 5734 5733 5731 5730 5729 5728 5726 5725 5725 5724 5723 5723 5723 5723 5723 5723
5772 5772 5771 5771 5770 5769 5768 5767 5765 5763 5762 5760 5758 5755 5753 5751 5749 5747 5745 5742 5740 5738 5735 5734 5732 5730 5729 5727 5726 5724 5723 5722 5721 5719 5718 5717 5716 5716 5717 5716 5716 5716 5716